This is the latest recevied weather packets stored in our database for station/object K9VSK-9. If no packets are shown the sender has not sent any weather packets the latest 10 day(s).
| Time | Temp. | Humidity | Pressure | Rain* | Wind** | Luminosity | Snow |
|---|---|---|---|---|---|---|---|
| 1777742406 | 12.78° C | 39% | 1021.7 hPa | 0 mm | - | - | - |
| 1777742105 | 12.22° C | 44% | 1021.5 hPa | 0 mm | - | - | - |
| 1777741805 | 12.22° C | 44% | 1021.7 hPa | 0 mm | - | - | - |
| 1777741505 | 12.22° C | 42% | 1021.7 hPa | 0 mm | - | - | - |
| 1777741204 | 12.22° C | 41% | 1021.7 hPa | 0 mm | - | - | - |
| 1777740904 | 11.67° C | 42% | 1021.7 hPa | 0 mm | - | - | - |
| 1777740604 | 11.67° C | 43% | 1021.8 hPa | 0 mm | - | - | - |
| 1777740304 | 11.67° C | 42% | 1021.8 hPa | 0 mm | - | - | - |
| 1777740003 | 12.22° C | 43% | 1021.8 hPa | 0 mm | - | - | - |
| 1777739703 | 12.78° C | 45% | 1021.8 hPa | 0 mm | - | - | - |
| 1777739403 | 12.22° C | 42% | 1021.8 hPa | 0 mm | - | - | - |
| 1777739102 | 12.22° C | 42% | 1021.8 hPa | 0 mm | - | - | - |
| 1777738802 | 12.22° C | 46% | 1021.9 hPa | 0 mm | - | - | - |
| 1777738502 | 12.22° C | 45% | 1021.9 hPa | 0 mm | - | - | - |
| 1777738202 | 11.67° C | 45% | 1021.9 hPa | 0 mm | - | - | - |
| 1777737901 | 11.67° C | 47% | 1022 hPa | 0 mm | - | - | - |
| 1777737601 | 11.67° C | 45% | 1022 hPa | 0 mm | - | - | - |
| 1777737301 | 11.67° C | 43% | 1022 hPa | 0 mm | - | - | - |
| 1777737001 | 12.22° C | 48% | 1021.9 hPa | 0 mm | - | - | - |
| 1777736700 | 12.22° C | 48% | 1022 hPa | 0 mm | - | - | - |
| 1777736400 | 12.22° C | 47% | 1022 hPa | 0 mm | - | - | - |
| 1777736100 | 11.67° C | 48% | 1021.9 hPa | 0 mm | - | - | - |
| 1777735800 | 11.67° C | 54% | 1022 hPa | 0 mm | - | - | - |
| 1777735499 | 11.11° C | 48% | 1022 hPa | 0 mm | - | - | - |
| 1777735199 | 11.67° C | 48% | 1022 hPa | 0 mm | - | - | - |
* Rain latest hour (hover to see other rain measurements)
** Current wind speed in m/s (hover to see current wind gust speed)